Year,Month,Day,Hour,Minute,Value (Times are PST for windgust in km/hr)
2016,07,21,00,33,1.60
2016,07,21,08,05,1.60
2016,07,21,08,06,1.60
2016,07,21,08,08,3.20
2016,07,21,08,09,1.60
2016,07,21,08,10,3.20
2016,07,21,08,11,1.60
2016,07,21,08,13,3.20
2016,07,21,08,14,4.80
2016,07,21,08,15,6.40
2016,07,21,08,16,3.20
2016,07,21,08,17,3.20
2016,07,21,08,18,6.40
2016,07,21,08,19,1.60
2016,07,21,08,22,3.20
2016,07,21,08,25,1.60
2016,07,21,08,26,1.60
2016,07,21,08,31,1.60
2016,07,21,08,32,1.60
2016,07,21,08,33,3.20
2016,07,21,08,34,1.60
2016,07,21,08,36,1.60
2016,07,21,08,37,1.60
2016,07,21,08,38,1.60
2016,07,21,08,39,1.60
2016,07,21,08,41,4.80
2016,07,21,08,42,3.20
2016,07,21,08,43,1.60
2016,07,21,08,46,1.60
2016,07,21,08,47,1.60
2016,07,21,08,48,1.60
2016,07,21,08,49,1.60
2016,07,21,08,50,1.60
2016,07,21,08,52,1.60
2016,07,21,08,53,1.60
2016,07,21,08,57,3.20
2016,07,21,08,58,1.60
2016,07,21,09,01,4.80
2016,07,21,09,02,4.80
2016,07,21,09,03,6.40
2016,07,21,09,04,4.80
2016,07,21,09,05,4.80
2016,07,21,09,06,1.60
2016,07,21,09,07,4.80
2016,07,21,09,08,1.60
2016,07,21,09,09,3.20
2016,07,21,09,10,3.20
2016,07,21,09,11,1.60
2016,07,21,09,14,1.60
2016,07,21,09,15,1.60
2016,07,21,09,17,1.60
2016,07,21,09,21,1.60
2016,07,21,09,22,6.40
2016,07,21,09,24,1.60
2016,07,21,09,25,1.60
2016,07,21,09,27,1.60
2016,07,21,09,28,1.60
2016,07,21,09,30,3.20
2016,07,21,09,31,4.80
2016,07,21,09,32,1.60
2016,07,21,09,33,4.80
2016,07,21,09,34,4.80
2016,07,21,09,35,4.80
2016,07,21,09,36,6.40
2016,07,21,09,37,6.40
2016,07,21,09,38,6.40
2016,07,21,09,39,1.60
2016,07,21,09,40,1.60
2016,07,21,09,42,4.80
2016,07,21,09,43,4.80
2016,07,21,09,44,3.20
2016,07,21,09,45,8.10
2016,07,21,09,46,8.10
2016,07,21,09,47,6.40
2016,07,21,09,48,9.60
2016,07,21,09,49,6.40
2016,07,21,09,50,6.40
2016,07,21,09,51,4.80
2016,07,21,09,52,9.60
2016,07,21,09,53,16.10
2016,07,21,09,54,3.20
2016,07,21,09,55,3.20
2016,07,21,09,56,3.20
2016,07,21,09,57,6.40
2016,07,21,09,58,6.40
2016,07,21,09,59,6.40
2016,07,21,10,00,1.60
2016,07,21,10,01,3.20
2016,07,21,10,02,4.80
2016,07,21,10,03,4.80
2016,07,21,10,04,4.80
2016,07,21,10,05,3.20
2016,07,21,10,06,1.60
2016,07,21,10,07,6.40
2016,07,21,10,08,8.10
2016,07,21,10,09,6.40
2016,07,21,10,10,6.40
2016,07,21,10,11,14.50
2016,07,21,10,12,9.60
2016,07,21,10,13,4.80
2016,07,21,10,14,6.40
2016,07,21,10,15,3.20
2016,07,21,10,16,12.90
2016,07,21,10,17,14.50
2016,07,21,10,18,4.80
2016,07,21,10,19,8.10
2016,07,21,10,20,8.10
2016,07,21,10,21,8.10
2016,07,21,10,22,9.60
2016,07,21,10,23,14.50
2016,07,21,10,24,9.60
2016,07,21,10,25,14.50
2016,07,21,10,26,11.30
2016,07,21,10,27,8.10
2016,07,21,10,28,4.80
2016,07,21,10,29,9.60
2016,07,21,10,30,14.50
2016,07,21,10,31,8.10
2016,07,21,10,32,8.10
2016,07,21,10,33,8.10
2016,07,21,10,34,8.10
2016,07,21,10,35,8.10
2016,07,21,10,36,8.10
2016,07,21,10,37,17.70
2016,07,21,10,38,9.60
2016,07,21,10,39,1.60
2016,07,21,10,41,3.20
2016,07,21,10,42,9.60
2016,07,21,10,43,9.60
2016,07,21,10,44,8.10
2016,07,21,10,45,8.10
2016,07,21,10,46,9.60
2016,07,21,10,47,12.90
2016,07,21,10,48,12.90
2016,07,21,10,49,9.60
2016,07,21,10,50,3.20
2016,07,21,10,51,6.40
2016,07,21,10,52,3.20
2016,07,21,10,53,6.40
2016,07,21,10,54,3.20
2016,07,21,10,55,1.60
2016,07,21,10,56,9.60
2016,07,21,10,57,9.60
2016,07,21,10,58,8.10
2016,07,21,10,59,8.10
2016,07,21,11,00,4.80
2016,07,21,11,01,9.60
2016,07,21,11,02,6.40
2016,07,21,11,03,8.10
2016,07,21,11,04,8.10
2016,07,21,11,05,8.10
2016,07,21,11,06,8.10
2016,07,21,11,07,4.80
2016,07,21,11,08,8.10
2016,07,21,11,09,12.90
2016,07,21,11,10,9.60
2016,07,21,11,11,6.40
2016,07,21,11,12,4.80
2016,07,21,11,13,3.20
2016,07,21,11,14,1.60
2016,07,21,11,15,4.80
2016,07,21,11,16,3.20
2016,07,21,11,17,3.20
2016,07,21,11,18,1.60
2016,07,21,11,19,8.10
2016,07,21,11,20,9.60
2016,07,21,11,21,8.10
2016,07,21,11,22,8.10
2016,07,21,11,23,14.50
2016,07,21,11,24,16.10
2016,07,21,11,25,17.70
2016,07,21,11,26,17.70
2016,07,21,11,27,9.60
2016,07,21,11,28,3.20
2016,07,21,11,29,9.60
2016,07,21,11,30,8.10
2016,07,21,11,31,8.10
2016,07,21,11,32,11.30
2016,07,21,11,33,16.10
2016,07,21,11,34,14.50
2016,07,21,11,35,12.90
2016,07,21,11,36,9.60
2016,07,21,11,37,8.10
2016,07,21,11,38,12.90
2016,07,21,11,39,14.50
2016,07,21,11,40,11.30
2016,07,21,11,41,16.10
2016,07,21,11,42,6.40
2016,07,21,11,43,3.20
2016,07,21,11,44,1.60
2016,07,21,11,45,6.40
2016,07,21,11,46,9.60
2016,07,21,11,47,6.40
2016,07,21,11,48,6.40
2016,07,21,11,49,4.80
2016,07,21,11,50,9.60
2016,07,21,11,51,11.30
2016,07,21,11,52,12.90
2016,07,21,11,53,8.10
2016,07,21,11,54,9.60
2016,07,21,11,55,6.40
2016,07,21,11,56,6.40
2016,07,21,11,57,1.60
2016,07,21,11,58,6.40
2016,07,21,11,59,11.30
2016,07,21,12,00,11.30
2016,07,21,12,01,14.50
2016,07,21,12,02,16.10
2016,07,21,12,03,17.70
2016,07,21,12,04,16.10
2016,07,21,12,05,11.30
2016,07,21,12,06,6.40
2016,07,21,12,07,14.50
2016,07,21,12,08,14.50
2016,07,21,12,09,14.50
2016,07,21,12,10,17.70
2016,07,21,12,11,16.10
2016,07,21,12,12,19.30
2016,07,21,12,13,14.50
2016,07,21,12,14,6.40
2016,07,21,12,15,16.10
2016,07,21,12,16,11.30
2016,07,21,12,17,11.30
2016,07,21,12,18,19.30
2016,07,21,12,19,17.70
2016,07,21,12,20,19.30
2016,07,21,12,21,20.90
2016,07,21,12,22,22.50
2016,07,21,12,23,19.30
2016,07,21,12,24,24.20
2016,07,21,12,25,22.50
2016,07,21,12,26,22.50
2016,07,21,12,27,22.50
2016,07,21,12,28,19.30
2016,07,21,12,29,22.50
2016,07,21,12,30,19.30
2016,07,21,12,31,17.70
2016,07,21,12,32,17.70
2016,07,21,12,33,17.70
2016,07,21,12,34,24.20
2016,07,21,12,35,19.30
2016,07,21,12,36,19.30
2016,07,21,12,37,20.90
2016,07,21,12,38,20.90
2016,07,21,12,39,17.70
2016,07,21,12,40,19.30
2016,07,21,12,41,20.90
2016,07,21,12,42,17.70
2016,07,21,12,43,12.90
2016,07,21,12,44,16.10
2016,07,21,12,45,16.10
2016,07,21,12,46,16.10
2016,07,21,12,47,16.10
2016,07,21,12,48,11.30
2016,07,21,12,49,14.50
2016,07,21,12,50,16.10
2016,07,21,12,51,14.50
2016,07,21,12,52,16.10
2016,07,21,12,53,12.90
2016,07,21,12,54,16.10
2016,07,21,12,55,17.70
2016,07,21,12,56,16.10
2016,07,21,12,57,14.50
2016,07,21,12,58,16.10
2016,07,21,12,59,17.70
2016,07,21,13,00,17.70
2016,07,21,13,01,17.70
2016,07,21,13,02,14.50
2016,07,21,13,03,17.70
2016,07,21,13,04,16.10
2016,07,21,13,05,16.10
2016,07,21,13,06,16.10
2016,07,21,13,07,11.30
2016,07,21,13,08,14.50
2016,07,21,13,09,17.70
2016,07,21,13,10,16.10
2016,07,21,13,11,16.10
2016,07,21,13,12,17.70
2016,07,21,13,13,16.10
2016,07,21,13,14,16.10
2016,07,21,13,15,16.10
2016,07,21,13,16,16.10
2016,07,21,13,17,8.10
2016,07,21,13,18,16.10
2016,07,21,13,19,19.30
2016,07,21,13,20,17.70
2016,07,21,13,21,16.10
2016,07,21,13,22,16.10
2016,07,21,13,23,16.10
2016,07,21,13,24,16.10
2016,07,21,13,25,17.70
2016,07,21,13,26,17.70
2016,07,21,13,27,17.70
2016,07,21,13,28,11.30
2016,07,21,13,29,17.70
2016,07,21,13,30,14.50
2016,07,21,13,31,17.70
2016,07,21,13,32,20.90
2016,07,21,13,33,19.30
2016,07,21,13,34,20.90
2016,07,21,13,35,19.30
2016,07,21,13,36,19.30
2016,07,21,13,37,22.50
2016,07,21,13,38,19.30
2016,07,21,13,39,17.70
2016,07,21,13,40,22.50
2016,07,21,13,41,20.90
2016,07,21,13,42,17.70
2016,07,21,13,43,14.50
2016,07,21,13,44,14.50
2016,07,21,13,45,19.30
2016,07,21,13,46,19.30
2016,07,21,13,47,19.30
2016,07,21,13,48,11.30
2016,07,21,13,49,14.50
2016,07,21,13,50,16.10
2016,07,21,13,51,17.70
2016,07,21,13,52,17.70
2016,07,21,13,53,17.70
2016,07,21,13,54,14.50
2016,07,21,13,55,14.50
2016,07,21,13,56,14.50
2016,07,21,13,57,16.10
2016,07,21,13,58,16.10
2016,07,21,13,59,16.10
2016,07,21,14,00,14.50
2016,07,21,14,01,16.10
2016,07,21,14,02,16.10
2016,07,21,14,03,17.70
2016,07,21,14,04,16.10
2016,07,21,14,05,11.30
2016,07,21,14,06,16.10
2016,07,21,14,07,19.30
2016,07,21,14,08,19.30
2016,07,21,14,09,16.10
2016,07,21,14,10,17.70
2016,07,21,14,11,16.10
2016,07,21,14,12,16.10
2016,07,21,14,13,14.50
2016,07,21,14,14,14.50
2016,07,21,14,15,17.70
2016,07,21,14,16,17.70
2016,07,21,14,17,16.10
2016,07,21,14,18,11.30
2016,07,21,14,19,12.90
2016,07,21,14,20,14.50
2016,07,21,14,21,16.10
2016,07,21,14,22,14.50
2016,07,21,14,23,11.30
2016,07,21,14,24,14.50
2016,07,21,14,25,16.10
2016,07,21,14,26,14.50
2016,07,21,14,27,9.60
2016,07,21,14,28,11.30
2016,07,21,14,29,17.70
2016,07,21,14,30,17.70
2016,07,21,14,31,17.70
2016,07,21,14,32,17.70
2016,07,21,14,33,22.50
2016,07,21,14,34,20.90
2016,07,21,14,35,20.90
2016,07,21,14,36,19.30
2016,07,21,14,37,17.70
2016,07,21,14,38,20.90
2016,07,21,14,39,22.50
2016,07,21,14,40,20.90
2016,07,21,14,41,22.50
2016,07,21,14,42,20.90
2016,07,21,14,43,16.10
2016,07,21,14,44,16.10
2016,07,21,14,45,17.70
2016,07,21,14,46,17.70
2016,07,21,14,47,19.30
2016,07,21,14,48,17.70
2016,07,21,14,49,11.30
2016,07,21,14,50,14.50
2016,07,21,14,51,19.30
2016,07,21,14,52,17.70
2016,07,21,14,53,16.10
2016,07,21,14,54,19.30
2016,07,21,14,55,16.10
2016,07,21,14,56,22.50
2016,07,21,14,57,19.30
2016,07,21,14,58,22.50
2016,07,21,14,59,20.90
2016,07,21,15,00,17.70
2016,07,21,15,01,11.30
2016,07,21,15,02,16.10
2016,07,21,15,03,12.90
2016,07,21,15,04,17.70
2016,07,21,15,05,12.90
2016,07,21,15,06,16.10
2016,07,21,15,07,16.10
2016,07,21,15,08,14.50
2016,07,21,15,09,16.10
2016,07,21,15,10,12.90
2016,07,21,15,11,16.10
2016,07,21,15,12,14.50
2016,07,21,15,13,14.50
2016,07,21,15,14,16.10
2016,07,21,15,15,16.10
2016,07,21,15,16,19.30
2016,07,21,15,17,16.10
2016,07,21,15,18,16.10
2016,07,21,15,19,14.50
2016,07,21,15,20,8.10
2016,07,21,15,21,11.30
2016,07,21,15,22,11.30
2016,07,21,15,23,9.60
2016,07,21,15,24,9.60
2016,07,21,15,25,9.60
2016,07,21,15,26,9.60
2016,07,21,15,27,11.30
2016,07,21,15,28,11.30
2016,07,21,15,29,12.90
2016,07,21,15,30,11.30
2016,07,21,15,31,16.10
2016,07,21,15,32,12.90
2016,07,21,15,33,12.90
2016,07,21,15,34,9.60
2016,07,21,15,35,9.60
2016,07,21,15,36,9.60
2016,07,21,15,37,8.10
2016,07,21,15,38,12.90
2016,07,21,15,39,14.50
2016,07,21,15,40,11.30
2016,07,21,15,41,12.90
2016,07,21,15,42,14.50
2016,07,21,15,43,11.30
2016,07,21,15,44,9.60
2016,07,21,15,45,14.50
2016,07,21,15,46,14.50
2016,07,21,15,47,3.20
2016,07,21,15,48,3.20
2016,07,21,15,49,9.60
2016,07,21,15,50,11.30
2016,07,21,15,51,16.10
2016,07,21,15,52,17.70
2016,07,21,15,53,17.70
2016,07,21,15,54,11.30
2016,07,21,15,55,16.10
2016,07,21,15,56,19.30
2016,07,21,15,57,19.30
2016,07,21,15,58,17.70
2016,07,21,15,59,17.70
2016,07,21,16,00,19.30
2016,07,21,16,01,16.10
2016,07,21,16,02,11.30
2016,07,21,16,03,17.70
2016,07,21,16,04,17.70
2016,07,21,16,05,19.30
2016,07,21,16,06,16.10
2016,07,21,16,07,17.70
2016,07,21,16,08,19.30
2016,07,21,16,09,19.30
2016,07,21,16,10,17.70
2016,07,21,16,11,16.10
2016,07,21,16,12,17.70
2016,07,21,16,13,17.70
2016,07,21,16,14,19.30
2016,07,21,16,15,20.90
2016,07,21,16,16,16.10
2016,07,21,16,17,22.50
2016,07,21,16,18,20.90
2016,07,21,16,19,16.10
2016,07,21,16,20,19.30
2016,07,21,16,21,11.30
2016,07,21,16,22,17.70
2016,07,21,16,23,17.70
2016,07,21,16,24,17.70
2016,07,21,16,25,17.70
2016,07,21,16,26,12.90
2016,07,21,16,27,14.50
2016,07,21,16,28,20.90
2016,07,21,16,29,19.30
2016,07,21,16,30,14.50
2016,07,21,16,31,20.90
2016,07,21,16,32,19.30
2016,07,21,16,33,14.50
2016,07,21,16,34,14.50
2016,07,21,16,35,11.30
2016,07,21,16,36,11.30
2016,07,21,16,37,9.60
2016,07,21,16,38,16.10
2016,07,21,16,39,20.90
2016,07,21,16,40,17.70
2016,07,21,16,41,14.50
2016,07,21,16,42,16.10
2016,07,21,16,43,17.70
2016,07,21,16,44,11.30
2016,07,21,16,45,11.30
2016,07,21,16,46,14.50
2016,07,21,16,47,22.50
2016,07,21,16,48,16.10
2016,07,21,16,49,16.10
2016,07,21,16,50,20.90
2016,07,21,16,51,19.30
2016,07,21,16,52,16.10
2016,07,21,16,53,11.30
2016,07,21,16,54,17.70
2016,07,21,16,55,22.50
2016,07,21,16,56,19.30
2016,07,21,16,57,19.30
2016,07,21,16,58,16.10
2016,07,21,16,59,20.90
2016,07,21,17,00,14.50
2016,07,21,17,01,14.50
2016,07,21,17,02,17.70
2016,07,21,17,03,11.30
2016,07,21,17,04,9.60
2016,07,21,17,05,9.60
2016,07,21,17,06,14.50
2016,07,21,17,07,22.50
2016,07,21,17,08,20.90
2016,07,21,17,09,20.90
2016,07,21,17,10,16.10
2016,07,21,17,11,12.90
2016,07,21,17,12,16.10
2016,07,21,17,13,14.50
2016,07,21,17,14,14.50
2016,07,21,17,15,12.90
2016,07,21,17,16,14.50
2016,07,21,17,17,12.90
2016,07,21,17,18,11.30
2016,07,21,17,19,16.10
2016,07,21,17,20,11.30
2016,07,21,17,21,17.70
2016,07,21,17,22,17.70
2016,07,21,17,23,19.30
2016,07,21,17,24,14.50
2016,07,21,17,25,14.50
2016,07,21,17,26,12.90
2016,07,21,17,27,9.60
2016,07,21,17,28,11.30
2016,07,21,17,29,14.50
2016,07,21,17,30,11.30
2016,07,21,17,31,9.60
2016,07,21,17,32,11.30
2016,07,21,17,33,11.30
2016,07,21,17,34,14.50
2016,07,21,17,35,14.50
2016,07,21,17,36,8.10
2016,07,21,17,37,9.60
2016,07,21,17,38,8.10
2016,07,21,17,39,8.10
2016,07,21,17,40,9.60
2016,07,21,17,41,16.10
2016,07,21,17,42,9.60
2016,07,21,17,43,9.60
2016,07,21,17,44,9.60
2016,07,21,17,45,14.50
2016,07,21,17,46,12.90
2016,07,21,17,47,9.60
2016,07,21,17,48,9.60
2016,07,21,17,49,9.60
2016,07,21,17,50,8.10
2016,07,21,17,51,11.30
2016,07,21,17,52,12.90
2016,07,21,17,53,11.30
2016,07,21,17,54,17.70
2016,07,21,17,55,17.70
2016,07,21,17,56,16.10
2016,07,21,17,57,16.10
2016,07,21,17,58,14.50
2016,07,21,17,59,14.50
2016,07,21,18,00,14.50
2016,07,21,18,01,14.50
2016,07,21,18,02,16.10
2016,07,21,18,03,16.10
2016,07,21,18,04,11.30
2016,07,21,18,05,12.90
2016,07,21,18,06,6.40
2016,07,21,18,07,8.10
2016,07,21,18,08,14.50
2016,07,21,18,09,12.90
2016,07,21,18,10,12.90
2016,07,21,18,11,14.50
2016,07,21,18,12,16.10
2016,07,21,18,13,14.50
2016,07,21,18,14,12.90
2016,07,21,18,15,16.10
2016,07,21,18,16,16.10
2016,07,21,18,17,11.30
2016,07,21,18,18,9.60
2016,07,21,18,19,14.50
2016,07,21,18,20,19.30
2016,07,21,18,21,19.30
2016,07,21,18,22,17.70
2016,07,21,18,23,19.30
2016,07,21,18,24,14.50
2016,07,21,18,25,16.10
2016,07,21,18,26,17.70
2016,07,21,18,27,17.70
2016,07,21,18,28,14.50
2016,07,21,18,29,19.30
2016,07,21,18,30,17.70
2016,07,21,18,31,16.10
2016,07,21,18,32,19.30
2016,07,21,18,33,22.50
2016,07,21,18,34,16.10
2016,07,21,18,35,17.70
2016,07,21,18,36,20.90
2016,07,21,18,37,11.30
2016,07,21,18,38,9.60
2016,07,21,18,39,11.30
2016,07,21,18,40,9.60
2016,07,21,18,41,16.10
2016,07,21,18,42,16.10
2016,07,21,18,43,14.50
2016,07,21,18,44,14.50
2016,07,21,18,45,11.30
2016,07,21,18,46,17.70
2016,07,21,18,47,17.70
2016,07,21,18,48,17.70
2016,07,21,18,49,14.50
2016,07,21,18,50,16.10
2016,07,21,18,51,14.50
2016,07,21,18,52,22.50
2016,07,21,18,53,24.20
2016,07,21,18,54,17.70
2016,07,21,18,55,17.70
2016,07,21,18,56,17.70
2016,07,21,18,57,19.30
2016,07,21,18,58,20.90
2016,07,21,18,59,16.10
2016,07,21,19,00,14.50
2016,07,21,19,01,16.10
2016,07,21,19,02,14.50
2016,07,21,19,03,16.10
2016,07,21,19,04,11.30
2016,07,21,19,05,11.30
2016,07,21,19,06,11.30
2016,07,21,19,07,11.30
2016,07,21,19,08,17.70
2016,07,21,19,09,11.30
2016,07,21,19,10,9.60
2016,07,21,19,11,14.50
2016,07,21,19,12,11.30
2016,07,21,19,13,9.60
2016,07,21,19,14,16.10
2016,07,21,19,15,19.30
2016,07,21,19,16,11.30
2016,07,21,19,17,17.70
2016,07,21,19,18,16.10
2016,07,21,19,19,11.30
2016,07,21,19,20,12.90
2016,07,21,19,21,14.50
2016,07,21,19,22,9.60
2016,07,21,19,23,19.30
2016,07,21,19,24,16.10
2016,07,21,19,25,9.60
2016,07,21,19,26,12.90
2016,07,21,19,27,14.50
2016,07,21,19,28,11.30
2016,07,21,19,29,17.70
2016,07,21,19,30,16.10
2016,07,21,19,31,9.60
2016,07,21,19,32,11.30
2016,07,21,19,33,19.30
2016,07,21,19,34,14.50
2016,07,21,19,35,9.60
2016,07,21,19,36,9.60
2016,07,21,19,37,9.60
2016,07,21,19,38,11.30
2016,07,21,19,39,14.50
2016,07,21,19,40,9.60
2016,07,21,19,41,9.60
2016,07,21,19,42,6.40
2016,07,21,19,43,8.10
2016,07,21,19,44,14.50
2016,07,21,19,45,8.10
2016,07,21,19,46,9.60
2016,07,21,19,47,11.30
2016,07,21,19,48,9.60
2016,07,21,19,49,12.90
2016,07,21,19,50,9.60
2016,07,21,19,51,11.30
2016,07,21,19,52,9.60
2016,07,21,19,53,6.40
2016,07,21,19,54,6.40
2016,07,21,19,55,11.30
2016,07,21,19,56,12.90
2016,07,21,19,57,14.50
2016,07,21,19,58,16.10
2016,07,21,19,59,11.30
2016,07,21,20,00,11.30
2016,07,21,20,01,11.30
2016,07,21,20,02,11.30
2016,07,21,20,03,12.90
2016,07,21,20,04,11.30
2016,07,21,20,05,4.80
2016,07,21,20,06,14.50
2016,07,21,20,07,11.30
2016,07,21,20,08,8.10
2016,07,21,20,09,8.10
2016,07,21,20,10,8.10
2016,07,21,20,11,8.10
2016,07,21,20,12,9.60
2016,07,21,20,13,16.10
2016,07,21,20,14,8.10
2016,07,21,20,15,8.10
2016,07,21,20,16,8.10
2016,07,21,20,17,8.10
2016,07,21,20,18,4.80
2016,07,21,20,19,3.20
2016,07,21,20,20,4.80
2016,07,21,20,21,4.80
2016,07,21,20,22,4.80
2016,07,21,20,23,4.80
2016,07,21,20,24,9.60
2016,07,21,20,25,9.60
2016,07,21,20,26,11.30
2016,07,21,20,27,8.10
2016,07,21,20,28,1.60
2016,07,21,20,29,9.60
2016,07,21,20,30,11.30
2016,07,21,20,31,8.10
2016,07,21,20,32,6.40
2016,07,21,20,33,3.20
2016,07,21,20,34,6.40
2016,07,21,20,35,8.10
2016,07,21,20,36,11.30
2016,07,21,20,37,9.60
2016,07,21,20,38,11.30
2016,07,21,20,39,6.40
2016,07,21,20,40,6.40
2016,07,21,20,41,6.40
2016,07,21,20,42,12.90
2016,07,21,20,43,16.10
2016,07,21,20,44,3.20
2016,07,21,20,45,9.60
2016,07,21,20,46,8.10
2016,07,21,20,47,4.80
2016,07,21,20,48,8.10
2016,07,21,20,49,4.80
2016,07,21,20,50,17.70
2016,07,21,20,51,9.60
2016,07,21,20,52,8.10
2016,07,21,20,53,8.10
2016,07,21,20,54,12.90
2016,07,21,20,55,11.30
2016,07,21,20,56,8.10
2016,07,21,20,57,9.60
2016,07,21,20,58,9.60
2016,07,21,20,59,14.50
2016,07,21,21,00,9.60
2016,07,21,21,01,12.90
2016,07,21,21,02,12.90
2016,07,21,21,03,14.50
2016,07,21,21,04,8.10
2016,07,21,21,05,11.30
2016,07,21,21,06,17.70
2016,07,21,21,07,14.50
2016,07,21,21,08,6.40
2016,07,21,21,09,9.60
2016,07,21,21,10,6.40
2016,07,21,21,11,8.10
2016,07,21,21,12,4.80
2016,07,21,21,13,9.60
2016,07,21,21,14,11.30
2016,07,21,21,15,9.60
2016,07,21,21,16,4.80
2016,07,21,21,17,8.10
2016,07,21,21,18,6.40
2016,07,21,21,19,6.40
2016,07,21,21,20,14.50
2016,07,21,21,21,11.30
2016,07,21,21,22,9.60
2016,07,21,21,23,8.10
2016,07,21,21,24,6.40
2016,07,21,21,25,9.60
2016,07,21,21,26,6.40
2016,07,21,21,27,4.80
2016,07,21,21,28,4.80
2016,07,21,21,29,9.60
2016,07,21,21,30,4.80
2016,07,21,21,31,4.80
2016,07,21,21,32,4.80
2016,07,21,21,33,4.80
2016,07,21,21,34,3.20
2016,07,21,21,35,1.60
2016,07,21,21,36,3.20
2016,07,21,21,37,6.40
2016,07,21,21,38,4.80
2016,07,21,21,39,4.80
2016,07,21,21,40,17.70
2016,07,21,21,41,11.30
2016,07,21,21,42,14.50
2016,07,21,21,43,12.90
2016,07,21,21,44,14.50
2016,07,21,21,45,14.50
2016,07,21,21,46,9.60
2016,07,21,21,47,14.50
2016,07,21,21,48,11.30
2016,07,21,21,49,14.50
2016,07,21,21,50,9.60
2016,07,21,21,51,16.10
2016,07,21,21,52,11.30
2016,07,21,21,53,14.50
2016,07,21,21,54,8.10
2016,07,21,21,55,8.10
2016,07,21,21,56,6.40
2016,07,21,21,57,11.30
2016,07,21,21,58,14.50
2016,07,21,21,59,9.60
2016,07,21,22,00,9.60
2016,07,21,22,01,11.30
2016,07,21,22,02,8.10
2016,07,21,22,03,8.10
2016,07,21,22,04,4.80
2016,07,21,22,05,9.60
2016,07,21,22,06,8.10
2016,07,21,22,07,16.10
2016,07,21,22,08,6.40
2016,07,21,22,09,9.60
2016,07,21,22,10,14.50
2016,07,21,22,11,9.60
2016,07,21,22,12,9.60
2016,07,21,22,13,9.60
2016,07,21,22,14,9.60
2016,07,21,22,15,9.60
2016,07,21,22,16,6.40
2016,07,21,22,17,3.20
2016,07,21,22,20,1.60
2016,07,21,22,23,4.80
2016,07,21,22,24,11.30
2016,07,21,22,25,8.10
2016,07,21,22,26,4.80
2016,07,21,22,27,4.80
2016,07,21,22,28,1.60
2016,07,21,22,29,3.20
2016,07,21,22,30,6.40
2016,07,21,22,31,9.60
2016,07,21,22,32,9.60
2016,07,21,22,33,9.60
2016,07,21,22,34,14.50
2016,07,21,22,35,6.40
2016,07,21,22,36,8.10
2016,07,21,22,37,6.40
2016,07,21,22,38,1.60
2016,07,21,22,39,9.60
2016,07,21,22,40,4.80
2016,07,21,22,41,3.20
2016,07,21,22,42,1.60
2016,07,21,22,43,3.20
2016,07,21,22,44,1.60
2016,07,21,22,45,14.50
2016,07,21,22,46,6.40
2016,07,21,22,47,14.50
2016,07,21,22,48,12.90
2016,07,21,22,49,9.60
2016,07,21,22,50,8.10
2016,07,21,22,51,4.80
2016,07,21,22,52,3.20
2016,07,21,22,53,1.60
2016,07,21,22,54,1.60
2016,07,21,22,55,1.60
2016,07,21,22,56,4.80
2016,07,21,22,57,6.40
2016,07,21,22,58,11.30
2016,07,21,22,59,3.20
2016,07,21,23,00,3.20
2016,07,21,23,01,9.60
2016,07,21,23,02,11.30
2016,07,21,23,03,6.40
2016,07,21,23,04,16.10
2016,07,21,23,05,11.30
2016,07,21,23,06,8.10
2016,07,21,23,07,9.60
2016,07,21,23,08,1.60
2016,07,21,23,09,8.10
2016,07,21,23,10,9.60
2016,07,21,23,11,4.80
2016,07,21,23,12,3.20
2016,07,21,23,13,8.10
2016,07,21,23,14,17.70
2016,07,21,23,15,19.30
2016,07,21,23,16,9.60
2016,07,21,23,17,8.10
2016,07,21,23,18,16.10
2016,07,21,23,19,20.90
2016,07,21,23,20,17.70
2016,07,21,23,21,11.30
2016,07,21,23,22,22.50
2016,07,21,23,23,19.30
2016,07,21,23,24,19.30
2016,07,21,23,25,12.90
2016,07,21,23,26,9.60
2016,07,21,23,27,8.10
2016,07,21,23,28,12.90
2016,07,21,23,29,16.10
2016,07,21,23,30,12.90
2016,07,21,23,31,9.60
2016,07,21,23,32,4.80
2016,07,21,23,33,6.40
2016,07,21,23,34,8.10
2016,07,21,23,35,3.20
2016,07,21,23,36,4.80
2016,07,21,23,37,8.10
2016,07,21,23,38,6.40
2016,07,21,23,39,4.80
2016,07,21,23,40,6.40
2016,07,21,23,41,6.40
2016,07,21,23,42,8.10
2016,07,21,23,43,6.40
2016,07,21,23,44,9.60
2016,07,21,23,45,14.50
2016,07,21,23,46,16.10
2016,07,21,23,47,14.50
2016,07,21,23,48,11.30
2016,07,21,23,49,20.90
2016,07,21,23,50,16.10
2016,07,21,23,51,16.10
2016,07,21,23,52,9.60
2016,07,21,23,53,9.60
2016,07,21,23,54,8.10
2016,07,21,23,55,8.10
2016,07,21,23,56,11.30
2016,07,21,23,57,9.60
2016,07,21,23,58,9.60
2016,07,21,23,59,16.10
